Simultaneous Nadir Overpasses (SNOs) Predictions

Prediction of SNOs near US between AQUA and NPP Satellite Orbit:

Table of predicted SNOs near US for the next 10.0 days since TLE Epoch: 2/9/2018
Index Date (AQUA) Time (AQUA) AQUA Lat,Lon Date (NPP) Time (NPP) NPP Lat,Lon Distance(km) Time Diff (sec)
1 02/12/2018 09:24:59 20.05,-114.22 02/12/2018 09:16:39 19.40,-114.86 98.69 500
2 02/15/2018 06:31:25 44.21, -65.79 02/15/2018 06:30:49 44.58, -67.83 167.31 36
3 02/15/2018 08:08:42 49.92, -88.31 02/15/2018 08:10:38 50.40, -90.80 185.34 116
4 02/15/2018 09:47:35 49.93,-113.03 02/15/2018 09:52:05 50.56,-116.10 229.71 270
5 02/17/2018 19:06:53 49.96, -92.55 02/17/2018 19:00:53 49.64, -94.35 133.82 360
6 02/17/2018 20:45:46 49.95,-117.27 02/17/2018 20:42:21 49.53,-119.68 179.12 205




NCC Satellite Simultaneous Nadir Overpasses (SNOs) Prediction Service
